This demonstration page uses our WeatherBlox Daily Observations layout. Learn more.

Left ArrowRight Arrow

Hourly Observations for May 10, 2016

Temp ( °F °C ) Dew Point ( °F °C ) Humidity (%) Winds ( mph kmh ) Pressure ( in mb ) Visibility ( mi km ) Precip ( " mm )
12:09 am 00:09 Partly Cloudy 61 16.1 58 14.4 90 90 S 7 11 29.68 1005 10 16 0.00 0.00
12:21 am 00:21 Mostly Cloudy 61 16.1 58 14.4 90 90 SE 12 19 29.68 1005 10 16 0.00 0.00
12:52 am 00:52 Cloudy 60 15.6 57 13.9 90 90 W 9 15 29.74 1007 10 16 0.00 0.00
12:59 am 00:59 Cloudy with Nearby Thunderstorms 60 15.6 57 13.9 90 90 W 13 20 29.74 1007 10 16 0.00 0.00
1:14 am 01:14 Cloudy with Light Rain 61 16 57 14 88 88 SSW 6 9 29.74 1007 10 16 0.00 0.00
1:28 am 01:28 Cloudy with Nearby Thunderstorms 61 16 57 14 88 88 SSW 6 9 29.74 1007 10 16 0.00 0.00
1:43 am 01:43 Cloudy with Light Rain 61 16.1 58 14.4 90 90 E 10 17 29.68 1005 10 16 0.00 0.03
1:52 am 01:52 Cloudy with Light Rain 61 16.1 58 14.4 90 90 NNE 7 11 29.71 1006 9 14 0.01 0.25
2:11 am 02:11 Mostly Cloudy 60 15.6 58 14.4 93 93 Calm 29.71 1006 10 16 0.00 0.03
2:19 am 02:19 Cloudy 60 15.6 57 13.9 90 90 Calm 29.71 1006 10 16 0.00 0.03
2:52 am 02:52 Cloudy with Light Rain 60 15.6 58 14.4 93 93 ESE 7 11 29.70 1006 9 14 0.00 0.03
3:52 am 03:52 Cloudy 61 16.1 58 14.4 90 90 SE 9 15 29.70 1006 10 16 0.00 0.03
4:19 am 04:19 Cloudy with Thunderstorms 61 16.1 58 14.4 90 90 SE 10 17 29.68 1005 10 16 0.00 0.00
4:33 am 04:33 Cloudy with Nearby Thunderstorms 61 16.1 58 14.4 90 90 SSE 8 13 29.71 1006 10 16 0.00 0.00
4:49 am 04:49 Cloudy 61 16 57 14 88 88 ESE 8 13 29.71 1006 10 16 0.00 0.00
4:52 am 04:52 Cloudy 61 16.1 58 14.4 90 90 SE 7 11 29.71 1006 10 16 0.00 0.00
5:52 am 05:52 Cloudy 61 16.1 57 13.9 87 87 ESE 8 13 29.72 1006 10 16 0.00 0.00
6:03 am 06:03 Cloudy 61 16 57 14 88 88 E 7 11 29.74 1007 10 16 0.00 0.00
6:20 am 06:20 Cloudy 61 16 57 14 88 88 E 7 11 29.74 1007 10 16 0.00 0.00
6:45 am 06:45 Cloudy 61 16.1 57 13.9 87 87 SE 7 11 29.74 1007 10 16 0.00 0.00
6:52 am 06:52 Cloudy 61 16.1 57 13.9 87 87 SE 9 15 29.75 1007 10 16 0.00 0.00
7:05 am 07:05 Mostly Cloudy 61 16.1 57 13.9 87 87 SE 10 17 29.74 1007 10 16 0.00 0.00
7:52 am 07:52 Mostly Sunny 63 17.2 58 14.4 84 84 SSE 10 17 29.75 1008 10 16 0.00 0.00
8:52 am 08:52 Partly Cloudy 66 18.9 60 15.6 81 81 SSE 10 17 29.77 1008 10 16 0.00 0.00
9:33 am 09:33 Mostly Cloudy 69 20.6 61 16.1 76 76 SSW 10 17 29.74 1007 10 16 0.00 0.00
9:52 am 09:52 Mostly Cloudy 70 21.1 61 16.1 73 73 SW 10 17 29.78 1008 10 16 0.00 0.00
10:52 am 10:52 Mostly Cloudy 73 22.8 63 17.2 71 71 SSW 12 19 29.79 1009 10 16 0.00 0.00
11:20 am 11:20 Partly Cloudy 75 24 63 17 65 65 SW 9 15 29.77 1008 10 16 0.00 0.00
11:31 am 11:31 Mostly Cloudy 75 23.9 61 16.1 62 62 WSW 10 17 29.77 1008 10 16 0.00 0.00
11:38 am 11:38 Mostly Sunny 77 25 63 17 61 61 WSW 13 20 29.77 1008 10 16 0.00 0.00
11:52 am 11:52 Partly Cloudy 75 23.9 61 16.1 62 62 WSW 9 15 29.81 1009 10 16 0.00 0.00
12:52 pm 12:52 Sunny 78 25.6 61 16.1 56 56 SW 10 17 29.81 1010 10 16 0.00 0.00
1:52 pm 13:52 Sunny 81 27.2 59 15 47 47 SW 10 17 29.81 1010 10 16 0.00 0.00
2:52 pm 14:52 Sunny 83 28.3 56 13.3 40 40 W 8 13 29.81 1010 10 16 0.00 0.00
3:52 pm 15:52 Mostly Sunny 84 28.9 56 13.3 38 38 WSW 13 20 29.82 1010 10 16 0.00 0.00
4:52 pm 16:52 Sunny 84 29 54 12 35 35 W 8 13 29.77 1008 10 16 0.00 0.00
5:52 pm 17:52 Sunny 84 28.9 53 11.7 34 34 undefined N/A 29.83 1010 10 16 0.00 0.00
6:52 pm 18:52 Sunny 82 27.8 54 12.2 38 38 SW 5 7 29.84 1011 10 16 0.00 0.00
7:52 pm 19:52 Sunny 80 26.7 56 13.3 44 44 Calm 29.85 1011 10 16 0.00 0.00
8:52 pm 20:52 Clear 68 20 58 14.4 70 70 SE 3 6 29.86 1011 10 16 0.00 0.00
9:52 pm 21:52 Clear 67 19.4 57 13.9 71 71 SE 5 7 29.86 1011 10 16 0.00 0.00
10:52 pm 22:52 Clear 69 20.6 57 13.9 66 66 SE 5 7 29.87 1012 10 16 0.00 0.00
11:52 pm 23:52 Clear 68 20 58 14.4 70 70 SSE 8 13 29.89 1012 10 16 0.00 0.00

Powered by AerisWeather